Location: Bailleul
(50.3375°N, 2.8513°E)
Time: 13:27:51
(UTC+00:00)

Meteor 1-21 Rocket - Pass Details

Date: 16 June 2021
Orbit: 834 x 907 km, 81.2° (Epoch: 05 August)

Event Time Altitude Azimuth Distance (km) Brightness Sun altitude
Exits shadow 23:39:36 24° 195° (SSW) 1,674 5.2 -16.2°
Maximum altitude 23:43:05 84° 281° (W) 869 4.2 -16.3°
Drops below altitude 10° 23:48:51 10° 11° (NNE) 2,529 8.0 -16.3°
Sets 23:51:19 0° 13° (NNE) 3,483 9.0 -16.3°
